Toluca Jose Maria, Mexico

8:43 AM CDT on July 23, 2017 (GMT -0500)
Lic Adolfo Lopez Mateos International

Weather History for MMTO - April, 2014

Change the Weather History Date:

Tuesday, April 1, 2014

  Actual Average Record
Temperature  
Mean Temperature 58 °F -  
Max Temperature 75 °F 73 °F 78 °F (1998)
Min Temperature 42 °F 39 °F 28 °F (2009)
Degree Days  
Heating Degree Days 6    
Growing Degree Days 8 (Base 50)    
Moisture  
Dew Point 38 °F    
Average Humidity 55    
Maximum Humidity 87    
Minimum Humidity 15    
Precipitation  
Precipitation 0.55 in - - ()
Sea Level Pressure  
Sea Level Pressure 30.38 in    
Wind  
Wind Speed 4 mph ()    
Max Wind Speed 24 mph    
Max Gust Speed -    
Visibility 5.8 miles    
Events Rain , Thunderstorm    
Averages and records for this station are not official NWS values.
T = Trace of Precipitation, MM = Missing Value Source: Averaged Metar Reports

Daily Weather History Graph

Daily Weather History Graph

Search for Another Location

Airport or City:

Trip Planner

Search our weather history database for the weather conditions in past years. The results will help you decide how hot, cold, wet, or windy it might be!

Date:

Astronomy

Apr. 01, 2014 Rise Set
Actual Time 6:32 AM CST 6:52 PM CST
Civil Twilight 6:10 AM CST 7:14 PM CST
Nautical Twilight 5:44 AM CST 7:40 PM CST
Astronomical Twilight 5:18 AM CST 8:05 PM CST
Moon 7:51 AM CST (4/1) 8:56 PM CST (4/1)
Length of Visible Light 13h 04m
Length of Day
12h 20m
Waxing Crescent, 5% of the Moon is Illuminated
Apr 1
Waxing Crescent
Apr 7
First Quarter
Apr 15
Full
Apr 22
Last Quarter
Apr 29
New

Hourly Weather History & Observations

Time (CST) Temp. Windchill Dew Point Humidity Pressure Visibility Wind Dir Wind Speed Gust Speed Precip Events Conditions
12:43 AM 50.0 °F - 39.2 °F 66% 30.39 in 7.0 mi ENE 4.6 mph - N/A   Scattered Clouds
1:43 AM 48.2 °F - 41.0 °F 76% 30.39 in 7.0 mi Calm Calm - N/A   Scattered Clouds
2:43 AM 48.2 °F - 39.2 °F 71% 30.38 in 6.0 mi Calm Calm - N/A   Mostly Cloudy
3:43 AM 42.8 °F 39.3 °F 39.2 °F 87% 30.37 in 5.0 mi NNE 5.8 mph - N/A   Mostly Cloudy
4:44 AM 46.4 °F 45.2 °F 39.2 °F 76% 30.37 in 4.0 mi East 3.5 mph - N/A   Mostly Cloudy
5:44 AM 44.6 °F - 39.2 °F 81% 30.38 in 3.0 mi Calm Calm - N/A   Scattered Clouds
6:47 AM 42.8 °F - 37.4 °F 81% 30.40 in 4.0 mi Calm Calm - N/A   Scattered Clouds
7:44 AM 48.2 °F - 39.2 °F 71% 30.42 in 5.0 mi Calm Calm - N/A   Clear
8:44 AM 55.4 °F - 39.2 °F 54% 30.43 in 6.0 mi Calm Calm - N/A   Clear
9:45 AM 55.4 °F - 39.2 °F 54% 30.43 in 6.0 mi Calm Calm - N/A   Clear
10:46 AM 69.8 °F - 30.2 °F 23% 30.42 in 6.0 mi Calm Calm - N/A   Partly Cloudy
11:44 AM 71.6 °F - 24.8 °F 17% 30.40 in 6.0 mi West 3.5 mph - N/A   Partly Cloudy
12:44 PM 73.4 °F - 28.4 °F 19% 30.37 in 6.0 mi NNW 3.5 mph - N/A   Mostly Cloudy
1:43 PM 75.2 °F - 24.8 °F 15% 30.34 in 6.0 mi Calm Calm - N/A   Mostly Cloudy
2:45 PM 73.4 °F - 35.6 °F 25% 30.32 in 6.0 mi SE 20.7 mph - N/A   Mostly Cloudy
3:26 PM 68.0 °F - 39.2 °F 35% 30.30 in 6.0 mi SE 21.9 mph - N/A Thunderstorm Thunderstorm
3:43 PM 66.2 °F - 33.8 °F 30% 30.32 in 6.0 mi SE 24.2 mph - N/A Thunderstorm Thunderstorm
4:45 PM 59.0 °F - 39.2 °F 48% 30.37 in 6.0 mi WSW 9.2 mph - N/A Rain , Thunderstorm Light Thunderstorms and Rain
5:46 PM 53.6 °F - 41.0 °F 62% 30.35 in 6.0 mi South 4.6 mph - N/A   Overcast
6:45 PM 55.4 °F - 41.0 °F 58% 30.39 in 6.0 mi West 3.5 mph - N/A Rain Light Rain
7:43 PM 55.4 °F - 42.8 °F 63% 30.39 in 6.0 mi NW 5.8 mph - N/A   Overcast
8:46 PM 55.4 °F - 41.0 °F 58% 30.38 in 7.0 mi NNW 8.1 mph - N/A   Overcast
9:42 PM 53.6 °F - 42.8 °F 67% 30.40 in 6.0 mi West 5.8 mph - N/A   Mostly Cloudy
10:42 PM 53.6 °F - 42.8 °F 67% 30.41 in 6.0 mi West 6.9 mph - N/A   Mostly Cloudy
11:42 PM 51.8 °F - 41.0 °F 67% 30.41 in 6.0 mi West 4.6 mph - N/A   Scattered Clouds